Location: Dehesa de la Cepeda
(40.6574°N, 4.3013°W)
Time: 13:08:09
(UTC+00:00)

Vanguard 2 Rocket - Pass Details

Date: 10 August 2021
Orbit: 556 x 3323 km, 32.9° (Epoch: 24 September)

Event Time Altitude Azimuth Distance (km) Brightness Sun altitude
Rises 01:11:33 0° 194° (SSW) 6,122 - -32.7°
Maximum altitude 01:22:32 10° 154° (SSE) 4,030 - -32.1°
Drops below altitude 10° 01:22:55 10° 152° (SSE) 3,991 - -32.1°
Exits shadow 01:27:35 - 124° (ESE) 3,848 9.9 -31.8°
Sets 01:30:22 0° 108° (ESE) 4,103 10.3 -31.6°
